Location: ???????
(55.4362°N, 38.1183°E)
Time: 07:41:09
(UTC+00:00)

Lacrosse 4 Rocket - Pass Details

Date: 30 October 2021
Orbit: 537 x 619 km, 68.0° (Epoch: 30 November)

Event Time Altitude Azimuth Distance (km) Brightness Sun altitude
Rises 14:36:52 0° 315° (NW) 2,816 5.4 -6.7°
Reaches altitude 10° 14:39:14 10° 306° (NW) 1,926 4.7 -7.0°
Maximum altitude 14:43:07 33° 243° (WSW) 1,017 3.5 -7.6°
Drops below altitude 10° 14:47:03 10° 179° (S) 1,954 4.3 -8.1°
Sets 14:49:28 0° 170° (S) 2,864 5.0 -8.4°
